Date String (YYYY-MM-DD hh:mm:ss) UTC,Instrument flags,Ambient pressure (hPa),Sample flow (lpm),Bypass flow (lpm),Sample temperature (°C),Ambient temperature (°C),ASC tube jacket temperature (°C),LED temperature (°C),Box temperature (°C),Sample RH (%),Span deviation,Mass concentration (μg/m³),Mass concentration (μg/m³),Mass concentration (μg/m³)
DateTimeUTC,F1_M11,P_M11,Q1_M11,Q2_M11,T1_M11,T2_M11,T3_M11,T4_M11,T5_M11,U1_M11,ZSPAN_M11,X0_M11,X2_M11,X1_M11
2022-04-08 23:00:00,,0825.5,5.01,0.00,28.1,27.4,00.0,37.0,29.9,06.4,0000.0,0006.49,0002.35,0001.31
2022-04-08 23:01:00,,0825.6,5.01,0.00,28.2,27.5,00.0,37.0,30.0,06.4,0000.0,0007.05,0002.37,0001.29
2022-04-08 23:02:00,,0825.5,5.00,0.00,28.2,27.5,00.0,37.0,30.0,06.3,0000.0,0007.62,0002.36,0001.29
2022-04-08 23:03:00,,0825.5,5.00,0.00,28.2,27.5,00.0,37.0,30.0,06.5,0000.0,0007.22,0002.41,0001.28
2022-04-08 23:04:00,,0825.5,5.00,0.00,28.2,27.5,00.0,37.0,30.0,06.3,0000.0,0007.42,0002.48,0001.28
2022-04-08 23:05:00,,0825.5,5.00,0.00,28.2,27.5,00.0,37.0,30.0,06.3,0000.0,0007.49,0002.50,0001.27
2022-04-08 23:06:00,,0825.5,5.00,0.00,28.2,27.5,00.0,37.0,30.0,06.3,0000.0,0007.46,0002.49,0001.26
2022-04-08 23:07:00,,0825.5,5.00,0.00,28.2,27.5,00.0,37.1,30.0,06.3,0000.0,0007.38,0002.49,0001.26
2022-04-08 23:08:00,,0825.5,5.00,0.00,28.2,27.5,00.0,37.1,30.0,06.3,0000.0,0007.50,0002.56,0001.26
2022-04-08 23:09:00,,0825.4,5.00,0.00,28.2,27.5,00.0,37.1,30.0,06.3,0000.0,0007.39,0002.48,0001.25
2022-04-08 23:10:00,,0825.4,5.00,0.00,28.2,27.5,00.0,37.1,30.0,06.3,0000.0,0007.34,0002.44,0001.25
2022-04-08 23:11:00,,0825.4,5.00,0.00,28.2,27.5,00.0,37.1,30.0,06.4,0000.0,0007.48,0002.40,0001.25
2022-04-08 23:12:00,,0825.4,5.00,0.00,28.3,27.6,00.0,37.1,30.1,06.3,0000.0,0007.66,0002.40,0001.25
2022-04-08 23:13:00,,0825.4,5.01,0.00,28.3,27.6,00.0,37.1,30.1,06.3,0000.0,0006.10,0002.38,0001.24
2022-04-08 23:14:00,,0825.4,5.00,0.00,28.3,27.6,00.0,37.1,30.1,06.1,0000.0,0006.00,0002.36,0001.24
2022-04-08 23:15:00,,0825.4,5.00,0.00,28.3,27.6,00.0,37.1,30.1,06.2,0000.0,0005.68,0002.32,0001.23
2022-04-08 23:16:00,,0825.4,5.00,0.00,28.3,27.6,00.0,37.1,30.1,06.3,0000.0,0005.81,0002.31,0001.22
2022-04-08 23:17:00,,0825.4,5.00,0.00,28.3,27.6,00.0,37.1,30.1,06.3,0000.0,0006.06,0002.35,0001.22
2022-04-08 23:18:00,,0825.4,5.00,0.00,28.3,27.5,00.0,37.1,30.1,06.3,0000.0,0006.08,0002.34,0001.22
2022-04-08 23:19:00,,0825.3,5.00,0.00,28.3,27.5,00.0,37.1,30.1,06.3,0000.0,0005.91,0002.29,0001.23
2022-04-08 23:20:00,,0825.4,4.99,0.00,28.3,27.5,00.0,37.1,30.1,06.2,0000.0,0006.58,0002.33,0001.22
2022-04-08 23:21:00,,0825.4,5.00,0.00,28.3,27.6,00.0,37.2,30.1,06.2,0000.0,0006.89,0002.41,0001.21
2022-04-08 23:22:00,,0825.4,5.01,0.00,28.3,27.6,00.0,37.2,30.1,06.3,0000.0,0006.92,0002.49,0001.21
2022-04-08 23:23:00,,0825.4,5.00,0.00,28.3,27.6,00.0,37.2,30.1,06.3,0000.0,0007.63,0002.52,0001.21
2022-04-08 23:24:00,,0825.3,5.00,0.00,28.3,27.6,00.0,37.2,30.1,06.3,0000.0,0007.68,0002.60,0001.22
2022-04-08 23:25:00,,0825.4,5.01,0.00,28.3,27.6,00.0,37.2,30.1,06.4,0000.0,0007.58,0002.53,0001.22
2022-04-08 23:26:00,,0825.3,5.00,0.00,28.3,27.6,00.0,37.2,30.1,06.3,0000.0,0007.65,0002.56,0001.23
2022-04-08 23:27:00,,0825.3,5.00,0.00,28.3,27.6,00.0,37.2,30.1,06.2,0000.0,0007.55,0002.56,0001.25
2022-04-08 23:28:00,,0825.3,5.00,0.00,28.3,27.6,00.0,37.2,30.1,06.3,0000.0,0007.39,0002.50,0001.24
2022-04-08 23:29:00,,0825.3,5.01,0.00,28.4,27.7,00.0,37.2,30.2,06.3,0000.0,0007.39,0002.49,0001.24
2022-04-08 23:30:00,,0825.3,5.00,0.00,28.4,27.7,00.0,37.2,30.2,06.4,0000.0,0007.43,0002.48,0001.23
2022-04-08 23:31:00,,0825.3,5.00,0.00,28.4,27.7,00.0,37.2,30.2,06.5,0000.0,0007.24,0002.53,0001.24
2022-04-08 23:32:00,,0825.3,5.00,0.00,28.4,27.8,00.0,37.3,30.2,06.4,0000.0,0007.28,0002.54,0001.25
2022-04-08 23:33:00,,0825.3,5.00,0.00,28.4,27.8,00.0,37.3,30.2,06.2,0000.0,0007.32,0002.62,0001.27
2022-04-08 23:34:00,,0825.3,5.00,0.00,28.5,27.8,00.0,37.3,30.2,06.3,0000.0,0005.56,0002.57,0001.28
2022-04-08 23:35:00,,0825.3,5.01,0.00,28.5,27.9,00.0,37.3,30.3,06.3,0000.0,0005.48,0002.48,0001.28
2022-04-08 23:36:00,,0825.3,5.01,0.00,28.5,27.9,00.0,37.3,30.3,06.1,0000.0,0005.42,0002.45,0001.28
2022-04-08 23:37:00,,0825.3,4.99,0.00,28.5,27.9,00.0,37.3,30.3,06.1,0000.0,0005.47,0002.46,0001.27
2022-04-08 23:38:00,,0825.3,5.00,0.00,28.5,27.9,00.0,37.3,30.3,06.2,0000.0,0005.63,0002.49,0001.26
2022-04-08 23:39:00,,0825.3,5.01,0.00,28.5,27.9,00.0,37.3,30.4,06.2,0000.0,0005.83,0002.55,0001.28
2022-04-08 23:40:00,,0825.2,4.99,0.00,28.6,27.9,00.0,37.4,30.4,06.2,0000.0,0005.92,0002.59,0001.29
2022-04-08 23:41:00,,0825.2,5.00,0.00,28.6,27.9,00.0,37.4,30.4,06.2,0000.0,0006.47,0002.58,0001.30
2022-04-08 23:42:00,,0825.2,5.01,0.00,28.6,28.0,00.0,37.4,30.4,06.2,0000.0,0006.32,0002.53,0001.29
2022-04-08 23:43:00,,0825.2,5.00,0.00,28.6,28.0,00.0,37.4,30.4,06.3,0000.0,0006.28,0002.54,0001.29
2022-04-08 23:44:00,,0825.2,4.99,0.00,28.6,28.0,00.0,37.4,30.5,06.3,0000.0,0006.15,0002.45,0001.28
2022-04-08 23:45:00,,0825.2,4.99,0.00,28.6,28.0,00.0,37.4,30.5,06.2,0000.0,0006.03,0002.43,0001.28
2022-04-08 23:46:00,,0825.2,5.00,0.00,28.7,28.0,00.0,37.5,30.5,06.2,0000.0,0006.13,0002.49,0001.27
2022-04-08 23:47:00,,0825.1,5.00,0.00,28.7,28.1,00.0,37.5,30.5,06.3,0000.0,0006.65,0002.63,0001.26
2022-04-08 23:48:00,,0825.2,5.00,0.00,28.7,28.1,00.0,37.5,30.5,06.4,0000.0,0006.63,0002.63,0001.27
2022-04-08 23:49:00,,0825.1,5.00,0.00,28.7,28.1,00.0,37.5,30.5,06.2,0000.0,0006.42,0002.60,0001.28
2022-04-08 23:50:00,,0825.2,4.99,0.00,28.7,28.1,00.0,37.5,30.5,06.1,0000.0,0006.35,0002.59,0001.27
2022-04-08 23:51:00,,0825.1,5.02,0.00,28.7,28.1,00.0,37.5,30.5,06.1,0000.0,0006.07,0002.50,0001.27
2022-04-08 23:52:00,,0825.1,5.01,0.00,28.7,28.1,00.0,37.5,30.5,06.1,0000.0,0005.59,0002.51,0001.27
2022-04-08 23:53:00,,0825.1,4.99,0.00,28.7,28.1,00.0,37.5,30.5,06.1,0000.0,0005.47,0002.50,0001.28
2022-04-08 23:54:00,,0825.1,5.00,0.00,28.8,28.1,00.0,37.6,30.6,06.2,0000.0,0005.28,0002.46,0001.28
2022-04-08 23:55:00,,0825.1,5.01,0.00,28.8,28.1,00.0,37.6,30.6,06.1,0000.0,0005.40,0002.41,0001.26
2022-04-08 23:56:00,,0825.1,5.00,0.00,28.8,28.1,00.0,37.6,30.6,06.0,0000.0,0006.97,0002.37,0001.26
2022-04-08 23:57:00,,0825.1,5.00,0.00,28.8,28.2,00.0,37.6,30.6,06.1,0000.0,0006.73,0002.31,0001.26
2022-04-08 23:58:00,,0825.1,5.01,0.00,28.8,28.2,00.0,37.6,30.6,06.1,0000.0,0006.99,0002.20,0001.26
2022-04-08 23:59:00,,0825.1,5.01,0.00,28.8,28.2,00.0,37.6,30.6,06.1,0000.0,0007.09,0002.18,0001.25
